| time (UTC) | temp C | wind direction | speed KPH | gust KPH | rain 1hr cm | rain 24hr cm | rain mn cm | humidity % | barometer mb |
| 20260906203039 | 22 | 225 | 0.0 | 0.0 | 0.00 | 0.00 | 0.00 | 46 | 1019.5 |
| 20260906202539 | 22 | 225 | 0.0 | 0.0 | 0.00 | 0.00 | 0.00 | 46 | 1019.5 |
| 20260906202038 | 22 | 225 | 0.0 | 0.0 | 0.00 | 0.00 | 0.00 | 46 | 1019.5 |
| 20260906201538 | 22 | 225 | 0.0 | 0.0 | 0.00 | 0.00 | 0.00 | 46 | 1019.5 |
| 20260906201038 | 22 | 225 | 0.0 | 0.0 | 0.00 | 0.00 | 0.00 | 45 | 1019.6 |
| 20260906200538 | 22 | 225 | 0.0 | 0.0 | 0.00 | 0.00 | 0.00 | 45 | 1019.7 |
| 20260906200037 | 23 | 225 | 0.0 | 0.0 | 0.00 | 0.00 | 0.00 | 45 | 1019.7 |
| 20260906195537 | 22 | 225 | 0.0 | 0.0 | 0.00 | 0.00 | 0.00 | 45 | 1019.7 |
| 20260906195037 | 23 | 225 | 0.0 | 0.0 | 0.00 | 0.00 | 0.00 | 45 | 1019.7 |
| 20260906194536 | 23 | 225 | 0.0 | 0.0 | 0.00 | 0.00 | 0.00 | 45 | 1019.8 |
| 20260906194036 | 23 | 225 | 0.0 | 0.0 | 0.00 | 0.00 | 0.00 | 44 | 1019.8 |
| 20260906193536 | 23 | 225 | 0.0 | 0.0 | 0.00 | 0.00 | 0.00 | 44 | 1019.9 |
| 20260906193036 | 23 | 225 | 0.0 | 0.0 | 0.00 | 0.00 | 0.00 | 44 | 1019.9 |
| 20260906192535 | 23 | 225 | 0.0 | 0.0 | 0.00 | 0.00 | 0.00 | 44 | 1019.9 |
| 20260906192035 | 23 | 225 | 0.0 | 0.0 | 0.00 | 0.00 | 0.00 | 43 | 1019.9 |
| 20260906191535 | 23 | 225 | 0.0 | 0.0 | 0.00 | 0.00 | 0.00 | 43 | 1019.9 |
| 20260906191034 | 23 | 225 | 0.0 | 0.0 | 0.00 | 0.00 | 0.00 | 42 | 1019.9 |
| 20260906190534 | 23 | 225 | 0.0 | 0.0 | 0.00 | 0.00 | 0.00 | 42 | 1019.9 |
| 20260906190034 | 24 | 225 | 0.0 | 0.0 | 0.00 | 0.00 | 0.00 | 42 | 1019.9 |
| 20260906185534 | 24 | 225 | 0.0 | 0.0 | 0.00 | 0.00 | 0.00 | 41 | 1019.9 |
| 20260906185033 | 24 | 225 | 0.0 | 0.0 | 0.00 | 0.00 | 0.00 | 41 | 1019.9 |
| 20260906184533 | 24 | 225 | 0.0 | 0.0 | 0.00 | 0.00 | 0.00 | 40 | 1019.9 |
| 20260906184033 | 24 | 225 | 0.0 | 0.0 | 0.00 | 0.00 | 0.00 | 40 | 1019.8 |
| 20260906183532 | 25 | 225 | 0.0 | 0.0 | 0.00 | 0.00 | 0.00 | 39 | 1019.8 |
| 20260906183032 | 25 | 225 | 0.0 | 0.0 | 0.00 | 0.00 | 0.00 | 38 | 1019.8 |
| 20260906182532 | 25 | 225 | 0.0 | 0.0 | 0.00 | 0.00 | 0.00 | 39 | 1019.7 |
| 20260906182032 | 25 | 225 | 0.0 | 0.0 | 0.00 | 0.00 | 0.00 | 38 | 1019.7 |
| 20260906181531 | 25 | 225 | 0.0 | 0.0 | 0.00 | 0.00 | 0.00 | 38 | 1019.7 |
| 20260906181031 | 25 | 225 | 0.0 | 0.0 | 0.00 | 0.00 | 0.00 | 37 | 1019.8 |
| 20260906180531 | 26 | 225 | 0.0 | 0.0 | 0.00 | 0.00 | 0.00 | 37 | 1019.8 |
| 20260906180031 | 26 | 225 | 0.0 | 0.0 | 0.00 | 0.00 | 0.00 | 36 | 1019.9 |
| 20260906175530 | 26 | 225 | 0.0 | 0.0 | 0.00 | 0.00 | 0.00 | 35 | 1019.9 |
| 20260906175030 | 26 | 225 | 0.0 | 0.0 | 0.00 | 0.00 | 0.00 | 35 | 1019.9 |
| 20260906174530 | 26 | 225 | 0.0 | 0.0 | 0.00 | 0.00 | 0.00 | 34 | 1019.9 |
| 20260906174029 | 26 | 225 | 0.0 | 0.0 | 0.00 | 0.00 | 0.00 | 34 | 1019.9 |
| 20260906173529 | 27 | 225 | 0.0 | 0.0 | 0.00 | 0.00 | 0.00 | 33 | 1019.9 |
| 20260906173029 | 27 | 225 | 0.0 | 0.0 | 0.00 | 0.00 | 0.00 | 33 | 1019.9 |
| 20260906172529 | 27 | 225 | 0.0 | 0.0 | 0.00 | 0.00 | 0.00 | 32 | 1019.9 |
| 20260906172028 | 27 | 225 | 0.0 | 0.0 | 0.00 | 0.00 | 0.00 | 31 | 1020.0 |
| 20260906171528 | 27 | 225 | 0.0 | 0.0 | 0.00 | 0.00 | 0.00 | 31 | 1020.0 |
| 20260906171028 | 28 | 225 | 0.0 | 0.0 | 0.00 | 0.00 | 0.00 | 30 | 1020.0 |
| 20260906170527 | 28 | 225 | 0.0 | 0.0 | 0.00 | 0.00 | 0.00 | 29 | 1019.9 |
| 20260906170027 | 28 | 237 | 0.0 | 0.0 | 0.00 | 0.00 | 0.00 | 28 | 1020.0 |
| 20260906165527 | 29 | 237 | 0.0 | 0.0 | 0.00 | 0.00 | 0.00 | 28 | 1020.0 |
| 20260906165026 | 29 | 237 | 0.0 | 0.0 | 0.00 | 0.00 | 0.00 | 27 | 1019.9 |
| 20260906164526 | 29 | 237 | 0.0 | 0.0 | 0.00 | 0.00 | 0.00 | 26 | 1020.0 |
| 20260906164026 | 30 | 237 | 0.0 | 1.6 | 0.00 | 0.00 | 0.00 | 26 | 1019.9 |
| 20260906163526 | 30 | 237 | 0.0 | 3.2 | 0.00 | 0.00 | 0.00 | 25 | 1019.9 |
| 20260906163025 | 30 | 151 | 0.0 | 3.2 | 0.00 | 0.00 | 0.00 | 24 | 1019.9 |
| 20260906162525 | 30 | 236 | 0.0 | 8.0 | 0.00 | 0.00 | 0.00 | 24 | 1019.9 |
| 20260906162025 | 30 | 174 | 0.0 | 3.2 | 0.00 | 0.00 | 0.00 | 25 | 1019.9 |
| 20260906161525 | 30 | 185 | 0.0 | 3.2 | 0.00 | 0.00 | 0.00 | 25 | 1020.0 |
| 20260906161024 | 30 | 216 | 1.6 | 6.4 | 0.00 | 0.00 | 0.00 | 25 | 1020.1 |
| 20260906160524 | 30 | 244 | 0.0 | 4.8 | 0.00 | 0.00 | 0.00 | 25 | 1020.0 |
| 20260906160024 | 31 | 251 | 0.0 | 1.6 | 0.00 | 0.00 | 0.00 | 24 | 1020.1 |
| 20260906155523 | 31 | 208 | 0.0 | 0.0 | 0.00 | 0.00 | 0.00 | 23 | 1020.2 |
| 20260906155023 | 31 | 208 | 0.0 | 4.8 | 0.00 | 0.00 | 0.00 | 23 | 1020.2 |
| 20260906154523 | 31 | 213 | 1.6 | 6.4 | 0.00 | 0.00 | 0.00 | 23 | 1020.4 |
| 20260906154023 | 31 | 161 | 0.0 | 4.8 | 0.00 | 0.00 | 0.00 | 24 | 1020.4 |
| 20260906153522 | 31 | 226 | 0.0 | 8.0 | 0.00 | 0.00 | 0.00 | 24 | 1020.3 |
| 20260906153022 | 30 | 203 | 0.0 | 1.6 | 0.00 | 0.00 | 0.00 | 24 | 1020.4 |
| 20260906152522 | 30 | 247 | 0.0 | 4.8 | 0.00 | 0.00 | 0.00 | 25 | 1020.4 |
| 20260906152021 | 30 | 234 | 3.2 | 3.2 | 0.00 | 0.00 | 0.00 | 26 | 1020.5 |
| 20260906151521 | 29 | 220 | 0.0 | 0.0 | 0.00 | 0.00 | 0.00 | 27 | 1020.6 |
| 20260906151021 | 29 | 220 | 0.0 | 3.2 | 0.00 | 0.00 | 0.00 | 27 | 1020.6 |
| 20260906150521 | 29 | 219 | 1.6 | 4.8 | 0.00 | 0.00 | 0.00 | 28 | 1020.6 |
| 20260906150020 | 29 | 284 | 0.0 | 3.2 | 0.00 | 0.00 | 0.00 | 27 | 1020.8 |
| 20260906145520 | 29 | 194 | 0.0 | 3.2 | 0.00 | 0.00 | 0.00 | 27 | 1020.9 |
| 20260906145020 | 29 | 212 | 0.0 | 1.6 | 0.00 | 0.00 | 0.00 | 27 | 1020.9 |
| 20260906144519 | 29 | 232 | 0.0 | 3.2 | 0.00 | 0.00 | 0.00 | 26 | 1020.9 |
| 20260906144019 | 30 | 229 | 0.0 | 1.6 | 0.00 | 0.00 | 0.00 | 26 | 1020.9 |
| 20260906143519 | 30 | 70 | 0.0 | 1.6 | 0.00 | 0.00 | 0.00 | 26 | 1021.0 |
| 20260906143019 | 30 | 212 | 0.0 | 3.2 | 0.00 | 0.00 | 0.00 | 26 | 1021.1 |
| 20260906142518 | 30 | 196 | 0.0 | 8.0 | 0.00 | 0.00 | 0.00 | 26 | 1021.1 |
| 20260906142018 | 30 | 158 | 0.0 | 3.2 | 0.00 | 0.00 | 0.00 | 26 | 1021.1 |
| 20260906141518 | 30 | 248 | 0.0 | 8.0 | 0.00 | 0.00 | 0.00 | 26 | 1021.2 |
| 20260906141017 | 30 | 229 | 0.0 | 3.2 | 0.00 | 0.00 | 0.00 | 26 | 1021.1 |
| 20260906140517 | 29 | 175 | 0.0 | 6.4 | 0.00 | 0.00 | 0.00 | 26 | 1021.2 |
| 20260906140017 | 29 | 219 | 0.0 | 6.4 | 0.00 | 0.00 | 0.00 | 27 | 1021.2 |
| 20260906135517 | 29 | 222 | 0.0 | 11.3 | 0.00 | 0.00 | 0.00 | 27 | 1021.2 |
| 20260906135016 | 29 | 191 | 0.0 | 3.2 | 0.00 | 0.00 | 0.00 | 28 | 1021.3 |
| 20260906134516 | 29 | 85 | 0.0 | 1.6 | 0.00 | 0.00 | 0.00 | 27 | 1021.4 |
| 20260906134016 | 30 | 226 | 0.0 | 3.2 | 0.00 | 0.00 | 0.00 | 26 | 1021.4 |
| 20260906133515 | 30 | 215 | 0.0 | 8.0 | 0.00 | 0.00 | 0.00 | 25 | 1021.5 |
| 20260906133015 | 31 | 68 | 0.0 | 4.8 | 0.00 | 0.00 | 0.00 | 24 | 1021.5 |
| 20260906132515 | 31 | 255 | 0.0 | 1.6 | 0.00 | 0.00 | 0.00 | 24 | 1021.5 |
| 20260906132015 | 31 | 271 | 0.0 | 4.8 | 0.00 | 0.00 | 0.00 | 25 | 1021.6 |
| 20260906131514 | 31 | 185 | 0.0 | 9.7 | 0.00 | 0.00 | 0.00 | 24 | 1021.7 |
| 20260906131014 | 31 | 47 | 0.0 | 6.4 | 0.00 | 0.00 | 0.00 | 24 | 1021.7 |
| 20260906130514 | 31 | 225 | 4.8 | 9.7 | 0.00 | 0.00 | 0.00 | 24 | 1021.7 |
| 20260906130013 | 31 | 241 | 4.8 | 8.0 | 0.00 | 0.00 | 0.00 | 24 | 1021.8 |
| 20260906125513 | 31 | 268 | 1.6 | 6.4 | 0.00 | 0.00 | 0.00 | 25 | 1021.8 |
| 20260906125013 | 31 | 36 | 0.0 | 3.2 | 0.00 | 0.00 | 0.00 | 25 | 1022.0 |
| 20260906124513 | 30 | 210 | 3.2 | 4.8 | 0.00 | 0.00 | 0.00 | 26 | 1022.0 |
| 20260906124012 | 30 | 101 | 0.0 | 8.0 | 0.00 | 0.00 | 0.00 | 26 | 1022.1 |
| 20260906123512 | 30 | 247 | 1.6 | 4.8 | 0.00 | 0.00 | 0.00 | 27 | 1022.1 |
| 20260906123012 | 30 | 358 | 1.6 | 6.4 | 0.00 | 0.00 | 0.00 | 25 | 1022.3 |
| 20260906122512 | 30 | 39 | 0.0 | 3.2 | 0.00 | 0.00 | 0.00 | 26 | 1022.4 |
| 20260906122011 | 30 | 213 | 0.0 | 11.3 | 0.00 | 0.00 | 0.00 | 26 | 1022.5 |
| 20260906121511 | 30 | 232 | 0.0 | 6.4 | 0.00 | 0.00 | 0.00 | 28 | 1022.5 |
| 20260906121011 | 29 | 109 | 6.4 | 6.4 | 0.00 | 0.00 | 0.00 | 27 | 1022.6 |
| 20260906120510 | 28 | 223 | 4.8 | 8.0 | 0.00 | 0.00 | 0.00 | 30 | 1022.6 |
| 20260906120010 | 28 | 213 | 6.4 | 8.0 | 0.00 | 0.00 | 0.00 | 30 | 1022.7 |
| 20260906115510 | 28 | 18 | 0.0 | 6.4 | 0.00 | 0.00 | 0.00 | 30 | 1022.7 |
| 20260906115010 | 27 | 212 | 6.4 | 6.4 | 0.00 | 0.00 | 0.00 | 31 | 1022.8 |
| 20260906114509 | 27 | 172 | 1.6 | 4.8 | 0.00 | 0.00 | 0.00 | 32 | 1022.9 |
| 20260906114009 | 27 | 188 | 0.0 | 4.8 | 0.00 | 0.00 | 0.00 | 33 | 1022.9 |
| 20260906113509 | 27 | 217 | 0.0 | 3.2 | 0.00 | 0.00 | 0.00 | 34 | 1023.0 |
| 20260906113008 | 26 | 115 | 0.0 | 4.8 | 0.00 | 0.00 | 0.00 | 35 | 1023.0 |
| 20260906112508 | 26 | 180 | 0.0 | 4.8 | 0.00 | 0.00 | 0.00 | 36 | 1023.0 |
| 20260906112008 | 26 | 225 | 0.0 | 3.2 | 0.00 | 0.00 | 0.00 | 36 | 1023.0 |
| 20260906111507 | 26 | 205 | 0.0 | 6.4 | 0.00 | 0.00 | 0.00 | 37 | 1023.0 |
| 20260906111007 | 25 | 57 | 1.6 | 6.4 | 0.00 | 0.00 | 0.00 | 37 | 1023.1 |
| 20260906110507 | 25 | 267 | 0.0 | 9.7 | 0.00 | 0.00 | 0.00 | 38 | 1023.2 |
| 20260906110007 | 25 | 253 | 1.6 | 3.2 | 0.00 | 0.00 | 0.00 | 38 | 1023.2 |
| 20260906105506 | 26 | 213 | 0.0 | 3.2 | 0.00 | 0.00 | 0.00 | 37 | 1023.3 |
| 20260906105006 | 26 | 167 | 0.0 | 3.2 | 0.00 | 0.00 | 0.00 | 36 | 1023.3 |
| 20260906104506 | 26 | 215 | 0.0 | 8.0 | 0.00 | 0.00 | 0.00 | 39 | 1023.3 |
| 20260906104006 | 25 | 203 | 0.0 | 4.8 | 0.00 | 0.00 | 0.00 | 41 | 1023.3 |
| 20260906103505 | 24 | 205 | 0.0 | 6.4 | 0.00 | 0.00 | 0.00 | 42 | 1023.4 |
| 20260906103005 | 23 | 198 | 1.6 | 4.8 | 0.00 | 0.00 | 0.00 | 45 | 1023.5 |
| 20260906102505 | 22 | 82 | 0.0 | 3.2 | 0.00 | 0.00 | 0.00 | 46 | 1023.6 |
| 20260906102004 | 22 | 177 | 1.6 | 6.4 | 0.00 | 0.00 | 0.00 | 46 | 1023.6 |
| 20260906101504 | 22 | 251 | 0.0 | 3.2 | 0.00 | 0.00 | 0.00 | 49 | 1023.6 |
| 20260906101004 | 21 | 201 | 3.2 | 3.2 | 0.00 | 0.00 | 0.00 | 50 | 1023.6 |
| 20260906100504 | 21 | 241 | 0.0 | 0.0 | 0.00 | 0.00 | 0.00 | 51 | 1023.8 |
| 20260906100003 | 21 | 241 | 0.0 | 6.4 | 0.00 | 0.00 | 0.00 | 52 | 1023.7 |
| 20260906095503 | 21 | 36 | 0.0 | 4.8 | 0.00 | 0.00 | 0.00 | 53 | 1023.8 |
| 20260906095003 | 21 | 347 | 3.2 | 4.8 | 0.00 | 0.00 | 0.00 | 53 | 1024.0 |
| 20260906094502 | 20 | 149 | 0.0 | 6.4 | 0.00 | 0.00 | 0.00 | 54 | 1024.1 |
| 20260906094002 | 20 | 68 | 3.2 | 6.4 | 0.00 | 0.00 | 0.00 | 55 | 1024.0 |
| 20260906093502 | 20 | 195 | 0.0 | 4.8 | 0.00 | 0.00 | 0.00 | 56 | 1024.0 |
| 20260906093002 | 20 | 180 | 1.6 | 6.4 | 0.00 | 0.00 | 0.00 | 57 | 1024.1 |
| 20260906092501 | 20 | 88 | 0.0 | 4.8 | 0.00 | 0.00 | 0.00 | 57 | 1024.2 |
| 20260906092001 | 20 | 75 | 3.2 | 4.8 | 0.00 | 0.00 | 0.00 | 58 | 1024.1 |
| 20260906091501 | 19 | 189 | 0.0 | 4.8 | 0.00 | 0.00 | 0.00 | 59 | 1024.2 |
| 20260906091000 | 19 | 327 | 1.6 | 6.4 | 0.00 | 0.00 | 0.00 | 60 | 1024.2 |
| 20260906090500 | 18 | 191 | 1.6 | 8.0 | 0.00 | 0.00 | 0.00 | 61 | 1024.2 |
| 20260906090000 | 18 | 184 | 0.0 | 3.2 | 0.00 | 0.00 | 0.00 | 61 | 1024.1 |
| 20260906085500 | 18 | 275 | 0.0 | 4.8 | 0.00 | 0.00 | 0.00 | 62 | 1024.1 |
| 20260906084959 | 18 | 255 | 0.0 | 3.2 | 0.00 | 0.00 | 0.00 | 63 | 1024.3 |
| 20260906084459 | 18 | 172 | 0.0 | 6.4 | 0.00 | 0.00 | 0.00 | 64 | 1024.2 |
| 20260906083959 | 18 | 226 | 3.2 | 8.0 | 0.00 | 0.00 | 0.00 | 63 | 1024.2 |
| 20260906083458 | 18 | 234 | 4.8 | 9.7 | 0.00 | 0.00 | 0.00 | 64 | 1024.1 |
| 20260906082958 | 18 | 158 | 0.0 | 4.8 | 0.00 | 0.00 | 0.00 | 65 | 1024.0 |
| 20260906082458 | 18 | 198 | 1.6 | 4.8 | 0.00 | 0.00 | 0.00 | 66 | 1024.1 |
| 20260906081958 | 17 | 187 | 0.0 | 6.4 | 0.00 | 0.00 | 0.00 | 66 | 1024.1 |
| 20260906081457 | 17 | 187 | 0.0 | 4.8 | 0.00 | 0.00 | 0.00 | 67 | 1024.1 |
| 20260906080957 | 17 | 216 | 1.6 | 8.0 | 0.00 | 0.00 | 0.00 | 67 | 1024.1 |
| 20260906080457 | 17 | 222 | 0.0 | 4.8 | 0.00 | 0.00 | 0.00 | 68 | 1024.1 |
| 20260906075956 | 17 | 54 | 0.0 | 3.2 | 0.00 | 0.00 | 0.00 | 68 | 1024.0 |
| 20260906075456 | 17 | 180 | 0.0 | 8.0 | 0.00 | 0.00 | 0.00 | 68 | 1024.1 |
| 20260906074956 | 17 | 213 | 0.0 | 3.2 | 0.00 | 0.00 | 0.00 | 68 | 1024.1 |
| 20260906074456 | 16 | 195 | 0.0 | 4.8 | 0.00 | 0.00 | 0.00 | 68 | 1024.2 |
| 20260906073955 | 16 | 180 | 0.0 | 3.2 | 0.00 | 0.00 | 0.00 | 68 | 1024.1 |
| 20260906073455 | 16 | 240 | 0.0 | 4.8 | 0.00 | 0.00 | 0.00 | 69 | 1024.1 |
| 20260906072955 | 16 | 227 | 1.6 | 4.8 | 0.00 | 0.00 | 0.00 | 69 | 1024.0 |
| 20260906072454 | 16 | 222 | 0.0 | 4.8 | 0.00 | 0.00 | 0.00 | 70 | 1024.1 |
| 20260906071954 | 16 | 208 | 0.0 | 0.0 | 0.00 | 0.00 | 0.00 | 71 | 1024.1 |
| 20260906071454 | 16 | 210 | 0.0 | 0.0 | 0.00 | 0.00 | 0.00 | 71 | 1024.0 |
| 20260906070954 | 16 | 210 | 0.0 | 1.6 | 0.00 | 0.00 | 0.00 | 71 | 1023.9 |
| 20260906070453 | 16 | 251 | 0.0 | 3.2 | 0.00 | 0.00 | 0.00 | 71 | 1024.0 |
| 20260906065953 | 16 | 185 | 0.0 | 0.0 | 0.00 | 0.00 | 0.00 | 71 | 1024.0 |
| 20260906065453 | 16 | 185 | 0.0 | 6.4 | 0.00 | 0.00 | 0.00 | 72 | 1023.9 |
| 20260906064953 | 16 | 236 | 0.0 | 0.0 | 0.00 | 0.00 | 0.00 | 72 | 1023.8 |
| 20260906064452 | 16 | 236 | 0.0 | 3.2 | 0.00 | 0.00 | 0.00 | 71 | 1023.9 |
| 20260906063952 | 15 | 191 | 0.0 | 0.0 | 0.00 | 0.00 | 0.00 | 71 | 1023.9 |
| 20260906063452 | 15 | 178 | 0.0 | 0.0 | 0.00 | 0.00 | 0.00 | 71 | 1024.0 |
| 20260906062951 | 15 | 178 | 0.0 | 4.8 | 0.00 | 0.00 | 0.00 | 71 | 1024.0 |
| 20260906062451 | 15 | 189 | 0.0 | 8.0 | 0.00 | 0.00 | 0.00 | 72 | 1024.1 |
| 20260906061951 | 15 | 253 | 0.0 | 3.2 | 0.00 | 0.00 | 0.00 | 71 | 1024.1 |
| 20260906061450 | 15 | 216 | 0.0 | 3.2 | 0.00 | 0.00 | 0.00 | 71 | 1024.1 |
| 20260906060950 | 15 | 223 | 0.0 | 0.0 | 0.00 | 0.00 | 0.00 | 71 | 1024.1 |
| 20260906060450 | 15 | 223 | 0.0 | 0.0 | 0.00 | 0.00 | 0.00 | 70 | 1024.1 |
| 20260906055950 | 15 | 226 | 0.0 | 0.0 | 0.00 | 0.00 | 0.00 | 70 | 1024.1 |
| 20260906055449 | 15 | 226 | 0.0 | 0.0 | 0.00 | 0.00 | 0.00 | 70 | 1024.0 |
| 20260906054949 | 15 | 226 | 0.0 | 0.0 | 0.00 | 0.00 | 0.00 | 71 | 1023.9 |
| 20260906054449 | 15 | 226 | 0.0 | 0.0 | 0.00 | 0.00 | 0.00 | 71 | 1023.9 |
| 20260906053949 | 15 | 226 | 0.0 | 0.0 | 0.00 | 0.00 | 0.00 | 71 | 1023.9 |
| 20260906053448 | 15 | 226 | 0.0 | 0.0 | 0.00 | 0.00 | 0.00 | 71 | 1023.9 |
| 20260906052948 | 15 | 226 | 0.0 | 0.0 | 0.00 | 0.00 | 0.00 | 71 | 1023.9 |
| 20260906052448 | 15 | 226 | 0.0 | 0.0 | 0.00 | 0.00 | 0.00 | 71 | 1023.7 |
| 20260906051947 | 15 | 226 | 0.0 | 0.0 | 0.00 | 0.00 | 0.00 | 70 | 1023.7 |
| 20260906051447 | 15 | 226 | 0.0 | 0.0 | 0.00 | 0.00 | 0.00 | 70 | 1023.5 |
| 20260906050947 | 15 | 226 | 0.0 | 0.0 | 0.00 | 0.00 | 0.00 | 70 | 1023.6 |
| 20260906050447 | 15 | 226 | 0.0 | 0.0 | 0.00 | 0.00 | 0.00 | 70 | 1023.6 |
| 20260906045946 | 15 | 226 | 0.0 | 1.6 | 0.00 | 0.00 | 0.00 | 70 | 1023.6 |
| 20260906045446 | 15 | 87 | 0.0 | 0.0 | 0.00 | 0.00 | 0.00 | 70 | 1023.5 |
| 20260906044946 | 15 | 87 | 0.0 | 0.0 | 0.00 | 0.00 | 0.00 | 70 | 1023.5 |
| 20260906044445 | 15 | 87 | 0.0 | 0.0 | 0.00 | 0.00 | 0.00 | 70 | 1023.5 |
| 20260906043945 | 15 | 87 | 0.0 | 0.0 | 0.00 | 0.00 | 0.00 | 70 | 1023.6 |
| 20260906043445 | 15 | 87 | 0.0 | 0.0 | 0.00 | 0.00 | 0.00 | 70 | 1023.5 |
| 20260906042944 | 15 | 87 | 0.0 | 0.0 | 0.00 | 0.00 | 0.00 | 69 | 1023.5 |
| 20260906042444 | 15 | 87 | 0.0 | 0.0 | 0.00 | 0.00 | 0.00 | 69 | 1023.5 |
| 20260906041944 | 15 | 87 | 0.0 | 0.0 | 0.00 | 0.00 | 0.00 | 69 | 1023.5 |
| 20260906041444 | 15 | 71 | 0.0 | 0.0 | 0.00 | 0.00 | 0.00 | 69 | 1023.5 |
| 20260906040943 | 15 | 71 | 0.0 | 0.0 | 0.00 | 0.00 | 0.00 | 69 | 1023.5 |
| 20260906040443 | 15 | 71 | 0.0 | 0.0 | 0.00 | 0.00 | 0.00 | 69 | 1023.5 |
| 20260906035943 | 15 | 71 | 0.0 | 0.0 | 0.00 | 0.00 | 0.00 | 69 | 1023.5 |
| 20260906035443 | 15 | 71 | 0.0 | 0.0 | 0.00 | 0.00 | 0.00 | 69 | 1023.6 |
| 20260906034942 | 15 | 71 | 0.0 | 0.0 | 0.00 | 0.00 | 0.00 | 69 | 1023.6 |
| 20260906034442 | 15 | 71 | 0.0 | 0.0 | 0.00 | 0.00 | 0.00 | 69 | 1023.5 |
| 20260906033942 | 15 | 71 | 0.0 | 0.0 | 0.00 | 0.00 | 0.00 | 69 | 1023.4 |
| 20260906033441 | 15 | 71 | 0.0 | 0.0 | 0.00 | 0.00 | 0.00 | 69 | 1023.4 |
| 20260906032941 | 15 | 71 | 0.0 | 0.0 | 0.00 | 0.00 | 0.00 | 68 | 1023.3 |
| 20260906032441 | 15 | 71 | 0.0 | 0.0 | 0.00 | 0.00 | 0.00 | 68 | 1023.3 |
| 20260906031941 | 15 | 71 | 0.0 | 0.0 | 0.00 | 0.00 | 0.00 | 68 | 1023.4 |
| 20260906031440 | 16 | 71 | 0.0 | 0.0 | 0.00 | 0.00 | 0.00 | 68 | 1023.5 |
| 20260906030940 | 16 | 71 | 0.0 | 0.0 | 0.00 | 0.00 | 0.00 | 69 | 1023.5 |
| 20260906030440 | 16 | 71 | 0.0 | 0.0 | 0.00 | 0.00 | 0.00 | 69 | 1023.6 |
| 20260906025939 | 16 | 71 | 0.0 | 0.0 | 0.00 | 0.00 | 0.00 | 69 | 1023.5 |
| 20260906025439 | 16 | 71 | 0.0 | 0.0 | 0.00 | 0.00 | 0.00 | 68 | 1023.5 |
| 20260906024939 | 16 | 71 | 0.0 | 0.0 | 0.00 | 0.00 | 0.00 | 68 | 1023.5 |
| 20260906024439 | 16 | 71 | 0.0 | 0.0 | 0.00 | 0.00 | 0.00 | 68 | 1023.4 |
| 20260906023938 | 16 | 71 | 0.0 | 0.0 | 0.00 | 0.00 | 0.00 | 68 | 1023.4 |
| 20260906023438 | 16 | 71 | 0.0 | 0.0 | 0.00 | 0.00 | 0.00 | 68 | 1023.5 |
| 20260906022938 | 16 | 71 | 0.0 | 0.0 | 0.00 | 0.00 | 0.00 | 68 | 1023.5 |
| 20260906022437 | 16 | 71 | 0.0 | 0.0 | 0.00 | 0.00 | 0.00 | 68 | 1023.5 |
| 20260906021937 | 16 | 71 | 0.0 | 0.0 | 0.00 | 0.00 | 0.00 | 68 | 1023.5 |
| 20260906021437 | 16 | 71 | 0.0 | 0.0 | 0.00 | 0.00 | 0.00 | 68 | 1023.6 |
| 20260906020937 | 16 | 71 | 0.0 | 0.0 | 0.00 | 0.00 | 0.00 | 68 | 1023.6 |
| 20260906020436 | 16 | 71 | 0.0 | 0.0 | 0.00 | 0.00 | 0.00 | 68 | 1023.5 |
| 20260906015936 | 16 | 71 | 0.0 | 0.0 | 0.00 | 0.00 | 0.00 | 67 | 1023.5 |
| 20260906015436 | 16 | 71 | 0.0 | 0.0 | 0.00 | 0.00 | 0.00 | 67 | 1023.5 |
| 20260906014935 | 16 | 71 | 0.0 | 0.0 | 0.00 | 0.00 | 0.00 | 67 | 1023.4 |
| 20260906014435 | 16 | 71 | 0.0 | 0.0 | 0.00 | 0.00 | 0.00 | 67 | 1023.4 |
| 20260906013935 | 16 | 71 | 0.0 | 0.0 | 0.00 | 0.00 | 0.00 | 67 | 1023.3 |
| 20260906013435 | 16 | 71 | 0.0 | 0.0 | 0.00 | 0.00 | 0.00 | 67 | 1023.2 |
| 20260906012934 | 17 | 71 | 0.0 | 0.0 | 0.00 | 0.00 | 0.00 | 67 | 1023.2 |
| 20260906012434 | 16 | 71 | 0.0 | 4.8 | 0.00 | 0.00 | 0.00 | 67 | 1023.2 |
| 20260906011934 | 16 | 81 | 0.0 | 0.0 | 0.00 | 0.00 | 0.00 | 67 | 1023.1 |
| 20260906011434 | 17 | 81 | 0.0 | 0.0 | 0.00 | 0.00 | 0.00 | 66 | 1023.1 |
| 20260906010933 | 17 | 81 | 0.0 | 0.0 | 0.00 | 0.00 | 0.00 | 66 | 1023.2 |
| 20260906010433 | 17 | 81 | 0.0 | 0.0 | 0.00 | 0.00 | 0.00 | 66 | 1023.1 |
| 20260906005933 | 17 | 81 | 0.0 | 0.0 | 0.00 | 0.00 | 0.00 | 66 | 1023.1 |
| 20260906005432 | 17 | 81 | 0.0 | 0.0 | 0.00 | 0.00 | 0.00 | 66 | 1023.1 |
| 20260906004932 | 17 | 81 | 0.0 | 0.0 | 0.00 | 0.00 | 0.00 | 65 | 1023.0 |
| 20260906004432 | 17 | 81 | 0.0 | 0.0 | 0.00 | 0.00 | 0.00 | 65 | 1023.0 |
| 20260906003932 | 17 | 81 | 0.0 | 0.0 | 0.00 | 0.00 | 0.00 | 65 | 1023.0 |
| 20260906003431 | 17 | 81 | 0.0 | 0.0 | 0.00 | 0.00 | 0.00 | 65 | 1023.1 |
| 20260906002931 | 17 | 81 | 0.0 | 0.0 | 0.00 | 0.00 | 0.00 | 65 | 1023.1 |
| 20260906002431 | 17 | 81 | 0.0 | 0.0 | 0.00 | 0.00 | 0.00 | 65 | 1023.1 |
| 20260906001930 | 17 | 81 | 0.0 | 0.0 | 0.00 | 0.00 | 0.00 | 64 | 1023.1 |
| 20260906001430 | 17 | 81 | 0.0 | 0.0 | 0.00 | 0.00 | 0.00 | 64 | 1023.0 |
| 20260906000930 | 17 | 81 | 0.0 | 0.0 | 0.00 | 0.00 | 0.00 | 64 | 1022.9 |
| 20260906000429 | 17 | 81 | 0.0 | 0.0 | 0.00 | 0.00 | 0.00 | 64 | 1022.9 |
| 20260905235929 | 17 | 81 | 0.0 | 0.0 | 0.00 | 0.00 | 0.00 | 64 | 1022.9 |
| 20260905235429 | 17 | 81 | 0.0 | 0.0 | 0.00 | 0.00 | 0.00 | 64 | 1023.0 |
| 20260905234929 | 17 | 81 | 0.0 | 3.2 | 0.00 | 0.00 | 0.00 | 64 | 1023.0 |
| 20260905234428 | 17 | 61 | 0.0 | 4.8 | 0.00 | 0.00 | 0.00 | 63 | 1023.0 |
| 20260905233928 | 18 | 43 | 0.0 | 1.6 | 0.00 | 0.00 | 0.00 | 63 | 1023.0 |
| 20260905233428 | 18 | 97 | 0.0 | 0.0 | 0.00 | 0.00 | 0.00 | 63 | 1023.0 |
| 20260905232928 | 18 | 97 | 0.0 | 0.0 | 0.00 | 0.00 | 0.00 | 62 | 1023.1 |
| 20260905232427 | 18 | 97 | 0.0 | 0.0 | 0.00 | 0.00 | 0.00 | 62 | 1023.1 |
| 20260905231927 | 18 | 97 | 0.0 | 0.0 | 0.00 | 0.00 | 0.00 | 62 | 1023.0 |
| 20260905231427 | 18 | 97 | 0.0 | 0.0 | 0.00 | 0.00 | 0.00 | 61 | 1023.0 |
| 20260905230926 | 18 | 97 | 0.0 | 0.0 | 0.00 | 0.00 | 0.00 | 61 | 1022.9 |
| 20260905230426 | 18 | 97 | 0.0 | 0.0 | 0.00 | 0.00 | 0.00 | 61 | 1022.9 |
| 20260905225926 | 18 | 97 | 0.0 | 0.0 | 0.00 | 0.00 | 0.00 | 60 | 1022.9 |
| 20260905225426 | 18 | 97 | 0.0 | 0.0 | 0.00 | 0.00 | 0.00 | 60 | 1022.9 |
| 20260905224925 | 19 | 97 | 0.0 | 0.0 | 0.00 | 0.00 | 0.00 | 60 | 1022.9 |
| 20260905224425 | 19 | 97 | 0.0 | 0.0 | 0.00 | 0.00 | 0.00 | 59 | 1022.8 |
| 20260905223925 | 19 | 97 | 0.0 | 0.0 | 0.00 | 0.00 | 0.00 | 59 | 1022.7 |
| 20260905223424 | 19 | 99 | 0.0 | 1.6 | 0.00 | 0.00 | 0.00 | 59 | 1022.6 |
| 20260905222924 | 19 | 67 | 0.0 | 0.0 | 0.00 | 0.00 | 0.00 | 59 | 1022.6 |
| 20260905222424 | 19 | 67 | 0.0 | 0.0 | 0.00 | 0.00 | 0.00 | 59 | 1022.5 |
| 20260905221924 | 19 | 67 | 0.0 | 0.0 | 0.00 | 0.00 | 0.00 | 59 | 1022.5 |
| 20260905221423 | 19 | 67 | 0.0 | 0.0 | 0.00 | 0.00 | 0.00 | 58 | 1022.5 |
| 20260905220923 | 19 | 67 | 0.0 | 0.0 | 0.00 | 0.00 | 0.00 | 58 | 1022.4 |
| 20260905220423 | 20 | 67 | 0.0 | 0.0 | 0.00 | 0.00 | 0.00 | 57 | 1022.4 |
| 20260905215922 | 20 | 67 | 0.0 | 0.0 | 0.00 | 0.00 | 0.00 | 57 | 1022.3 |
| 20260905215422 | 20 | 67 | 0.0 | 0.0 | 0.00 | 0.00 | 0.00 | 57 | 1022.3 |
| 20260905214922 | 20 | 67 | 0.0 | 0.0 | 0.00 | 0.00 | 0.00 | 57 | 1022.3 |
| 20260905214422 | 20 | 67 | 0.0 | 0.0 | 0.00 | 0.00 | 0.00 | 56 | 1022.2 |
| 20260905213921 | 20 | 67 | 0.0 | 0.0 | 0.00 | 0.00 | 0.00 | 56 | 1022.2 |
| 20260905213421 | 20 | 67 | 0.0 | 0.0 | 0.00 | 0.00 | 0.00 | 55 | 1022.0 |
| 20260905212921 | 20 | 67 | 0.0 | 0.0 | 0.00 | 0.00 | 0.00 | 55 | 1022.0 |
| 20260905212420 | 20 | 67 | 0.0 | 0.0 | 0.00 | 0.00 | 0.00 | 55 | 1022.0 |
| 20260905211920 | 20 | 67 | 0.0 | 0.0 | 0.00 | 0.00 | 0.00 | 55 | 1021.9 |
| 20260905211420 | 20 | 67 | 0.0 | 0.0 | 0.00 | 0.00 | 0.00 | 55 | 1021.9 |
| 20260905210920 | 20 | 67 | 0.0 | 0.0 | 0.00 | 0.00 | 0.00 | 54 | 1021.8 |
| 20260905210419 | 20 | 67 | 0.0 | 0.0 | 0.00 | 0.00 | 0.00 | 54 | 1021.7 |
| 20260905205919 | 20 | 67 | 0.0 | 0.0 | 0.00 | 0.00 | 0.00 | 54 | 1021.7 |
| 20260905205419 | 21 | 67 | 0.0 | 0.0 | 0.00 | 0.00 | 0.00 | 53 | 1021.7 |
| 20260905204918 | 20 | 67 | 0.0 | 0.0 | 0.00 | 0.03 | 0.00 | 53 | 1021.7 |
| 20260905204418 | 20 | 67 | 0.0 | 0.0 | 0.00 | 0.03 | 0.00 | 53 | 1021.8 |
| 20260905203918 | 20 | 67 | 0.0 | 0.0 | 0.00 | 0.03 | 0.00 | 52 | 1021.6 |